TimeCDT,TemperatureF,Dew PointF,Humidity,Sea Level PressureIn,VisibilityMPH,Wind Direction,Wind SpeedMPH,Gust SpeedMPH,PrecipitationIn,Events,Conditions,WindDirDegrees,DateUTC
12:13 AM,26.6,23.0,86,29.60,10.0,NNW,10.4,18.4,N/A,,Overcast,330,2013-04-07 05:13:00
12:33 AM,26.6,23.0,86,29.61,10.0,NNW,12.7,17.3,N/A,,Overcast,330,2013-04-07 05:33:00
12:53 AM,26.6,23.0,86,29.61,10.0,NNW,10.4,18.4,N/A,,Overcast,330,2013-04-07 05:53:00
1:14 AM,26.6,21.2,80,29.61,10.0,NNW,12.7,17.3,N/A,,Overcast,330,2013-04-07 06:14:00
1:33 AM,26.6,21.2,80,29.62,10.0,NW,11.5,18.4,N/A,,Overcast,320,2013-04-07 06:33:00
1:53 AM,26.6,21.2,80,29.62,10.0,NW,11.5,19.6,N/A,,Overcast,320,2013-04-07 06:53:00
2:14 AM,26.6,21.2,80,29.62,10.0,NNW,8.1,16.1,N/A,,Overcast,330,2013-04-07 07:14:00
2:34 AM,26.6,21.2,80,29.63,10.0,NNW,12.7,18.4,N/A,,Overcast,330,2013-04-07 07:34:00
2:53 AM,26.6,21.2,80,29.64,10.0,NNW,10.4,16.1,N/A,,Overcast,330,2013-04-07 07:53:00
3:13 AM,26.6,21.2,80,29.65,10.0,NW,11.5,20.7,N/A,,Overcast,320,2013-04-07 08:13:00
3:33 AM,26.6,23.0,86,29.65,10.0,NW,13.8,18.4,N/A,,Overcast,320,2013-04-07 08:33:00
3:54 AM,26.6,23.0,86,29.66,10.0,NNW,8.1,16.1,N/A,,Overcast,330,2013-04-07 08:54:00
4:14 AM,26.6,23.0,86,29.68,10.0,NNW,8.1,19.6,N/A,,Overcast,340,2013-04-07 09:14:00
4:34 AM,26.6,23.0,86,29.68,10.0,NNW,10.4,18.4,N/A,,Overcast,340,2013-04-07 09:34:00
4:53 AM,26.6,23.0,86,29.69,10.0,NNW,8.1,-,N/A,,Overcast,330,2013-04-07 09:53:00
5:14 AM,26.6,21.2,80,29.69,10.0,NNW,8.1,-,N/A,,Overcast,340,2013-04-07 10:14:00
5:34 AM,26.6,21.2,80,29.70,10.0,NNW,8.1,-,N/A,,Overcast,330,2013-04-07 10:34:00
5:53 AM,26.6,21.2,80,29.71,10.0,NNW,6.9,-,N/A,,Overcast,340,2013-04-07 10:53:00
6:14 AM,26.6,21.2,80,29.72,10.0,NNW,9.2,-,N/A,,Overcast,330,2013-04-07 11:14:00
6:34 AM,26.6,21.2,80,29.73,10.0,NNW,6.9,-,N/A,,Scattered Clouds,340,2013-04-07 11:34:00
6:54 AM,26.6,21.2,80,29.75,10.0,NNW,8.1,-,N/A,,Mostly Cloudy,330,2013-04-07 11:54:00
7:14 AM,26.6,21.2,80,29.75,10.0,NNW,6.9,-,N/A,,Scattered Clouds,340,2013-04-07 12:14:00
7:33 AM,26.6,21.2,80,29.77,10.0,NNW,5.8,-,N/A,,Scattered Clouds,330,2013-04-07 12:33:00
7:53 AM,26.6,21.2,80,29.78,10.0,NNW,8.1,-,N/A,,Mostly Cloudy,340,2013-04-07 12:53:00
8:13 AM,28.4,21.2,74,29.79,10.0,NW,3.5,-,N/A,,Overcast,320,2013-04-07 13:13:00
8:33 AM,28.4,21.2,74,29.79,10.0,North,5.8,-,N/A,,Overcast,350,2013-04-07 13:33:00
8:54 AM,28.4,21.2,74,29.79,10.0,NW,4.6,-,N/A,,Overcast,320,2013-04-07 13:54:00
9:14 AM,30.2,23.0,75,29.80,10.0,NNW,4.6,-,N/A,,Overcast,340,2013-04-07 14:14:00
9:33 AM,30.2,23.0,75,29.80,10.0,NW,5.8,-,N/A,,Overcast,320,2013-04-07 14:33:00
9:54 AM,33.8,24.8,70,29.80,10.0,NNW,4.6,-,N/A,,Mostly Cloudy,340,2013-04-07 14:54:00
10:13 AM,33.8,23.0,65,29.81,10.0,North,3.5,-,N/A,,Scattered Clouds,360,2013-04-07 15:13:00
10:33 AM,35.6,23.0,60,29.82,10.0,Calm,Calm,-,N/A,,Mostly Cloudy,0,2013-04-07 15:33:00
10:54 AM,33.8,21.2,60,29.83,10.0,WNW,5.8,-,N/A,,Overcast,300,2013-04-07 15:54:00
11:13 AM,33.8,21.2,60,29.84,10.0,West,4.6,-,N/A,,Overcast,270,2013-04-07 16:13:00
11:34 AM,33.8,21.2,60,29.84,10.0,NW,5.8,-,N/A,,Overcast,320,2013-04-07 16:34:00
11:53 AM,33.8,21.2,60,29.84,10.0,WNW,3.5,-,N/A,,Overcast,290,2013-04-07 16:53:00
12:14 PM,33.8,21.2,60,29.86,10.0,WNW,5.8,-,N/A,,Overcast,290,2013-04-07 17:14:00
12:33 PM,33.8,23.0,65,29.86,10.0,West,4.6,-,N/A,,Overcast,270,2013-04-07 17:33:00
12:53 PM,33.8,23.0,65,29.86,10.0,WSW,3.5,-,N/A,,Overcast,240,2013-04-07 17:53:00
1:14 PM,35.6,21.2,56,29.85,10.0,West,5.8,-,N/A,,Overcast,260,2013-04-07 18:14:00
1:33 PM,35.6,21.2,56,29.86,10.0,SSW,3.5,-,N/A,,Overcast,210,2013-04-07 18:33:00
1:53 PM,35.6,21.2,56,29.86,10.0,West,4.6,-,N/A,,Overcast,260,2013-04-07 18:53:00
2:13 PM,35.6,24.8,65,29.87,10.0,SSE,4.6,-,N/A,,Overcast,160,2013-04-07 19:13:00
2:33 PM,35.6,26.6,70,29.86,10.0,South,6.9,-,N/A,,Overcast,180,2013-04-07 19:33:00
2:54 PM,35.6,24.8,65,29.86,10.0,SSW,4.6,-,N/A,,Overcast,200,2013-04-07 19:54:00
3:13 PM,35.6,24.8,65,29.87,10.0,SSW,6.9,-,N/A,,Overcast,200,2013-04-07 20:13:00
3:34 PM,35.6,26.6,70,29.86,10.0,South,6.9,-,N/A,,Overcast,190,2013-04-07 20:34:00
3:53 PM,33.8,24.8,70,29.87,10.0,SSW,4.6,-,N/A,,Overcast,200,2013-04-07 20:53:00
4:14 PM,33.8,24.8,70,29.86,10.0,Calm,Calm,-,N/A,,Overcast,0,2013-04-07 21:14:00
4:33 PM,33.8,24.8,70,29.86,10.0,South,8.1,-,N/A,,Overcast,190,2013-04-07 21:33:00
4:54 PM,33.8,24.8,70,29.86,10.0,SSW,5.8,-,N/A,,Overcast,200,2013-04-07 21:54:00
5:13 PM,33.8,23.0,65,29.86,10.0,SSW,5.8,-,N/A,,Overcast,210,2013-04-07 22:13:00
5:34 PM,33.8,21.2,60,29.86,10.0,South,3.5,-,N/A,,Overcast,190,2013-04-07 22:34:00
5:54 PM,33.8,21.2,60,29.86,10.0,South,4.6,-,N/A,,Overcast,190,2013-04-07 22:54:00
6:14 PM,33.8,21.2,60,29.87,10.0,South,4.6,-,N/A,,Overcast,180,2013-04-07 23:14:00
6:33 PM,32.0,21.2,64,29.87,10.0,South,4.6,-,N/A,,Overcast,180,2013-04-07 23:33:00
6:53 PM,32.0,21.2,64,29.87,10.0,South,3.5,-,N/A,,Overcast,180,2013-04-07 23:53:00
7:13 PM,30.2,21.2,69,29.86,10.0,Calm,Calm,-,N/A,,Overcast,0,2013-04-08 00:13:00
7:34 PM,30.2,21.2,69,29.86,10.0,South,6.9,-,N/A,,Overcast,170,2013-04-08 00:34:00
7:53 PM,30.2,19.4,64,29.87,10.0,South,4.6,-,N/A,,Overcast,170,2013-04-08 00:53:00
8:13 PM,30.2,21.2,69,29.87,10.0,SSE,4.6,-,N/A,,Mostly Cloudy,150,2013-04-08 01:13:00
8:34 PM,30.2,21.2,69,29.87,10.0,SSE,3.5,-,N/A,,Overcast,160,2013-04-08 01:34:00
8:53 PM,30.2,21.2,69,29.88,10.0,Calm,Calm,-,N/A,,Overcast,0,2013-04-08 01:53:00
9:13 PM,30.2,21.2,69,29.87,10.0,Calm,Calm,-,N/A,,Overcast,0,2013-04-08 02:13:00
9:33 PM,28.4,21.2,74,29.88,10.0,Calm,Calm,-,N/A,,Overcast,0,2013-04-08 02:33:00
9:54 PM,28.4,21.2,74,29.88,10.0,Calm,Calm,-,N/A,,Overcast,0,2013-04-08 02:54:00
10:14 PM,28.4,21.2,74,29.88,10.0,Calm,Calm,-,N/A,,Overcast,0,2013-04-08 03:14:00
10:34 PM,28.4,21.2,74,29.88,10.0,Calm,Calm,-,N/A,,Overcast,0,2013-04-08 03:34:00
10:54 PM,28.4,21.2,74,29.88,10.0,Calm,Calm,-,N/A,,Overcast,0,2013-04-08 03:54:00
11:13 PM,30.2,19.4,64,29.88,10.0,Calm,Calm,-,N/A,,Overcast,0,2013-04-08 04:13:00
11:33 PM,28.4,19.4,69,29.87,10.0,Calm,Calm,-,N/A,,Overcast,0,2013-04-08 04:33:00
11:54 PM,28.4,21.2,74,29.87,10.0,Calm,Calm,-,N/A,,Overcast,0,2013-04-08 04:54:00